Regional Weather Roundup
Issued by NWS

Home | Current Version | Previous Version | Graphics & Text | Print | Product List | Glossary On
Versions: 1 2 3 4 5 6 7 8 9 10 11 12 13 14 15 16 17 18 19 20 21 22 23 24 25 26 27 28 29 30 31 32 33 34 35 36 37 38 39 40 41 42 43 44 45 46 47 48 49 50
000
ASUS43 KDTX 030110
RWRMI
MICHIGAN HOURLY REGIONAL WEATHER ROUNDUP
NATIONAL WEATHER SERVICE DETROIT/PONTIAC MI
ISSUED BY NATIONAL WEATHER SERVICE GRAND RAPIDS MI
900 PM EDT WED SEP 02 2015

NOTE: "FAIR" INDICATES FEW OR NO CLOUDS BELOW 12,000 FEET WITH NO
SIGNIFICANT WEATHER AND/OR OBSTRUCTION TO VISIBILITY.

MIZ047>049-052>055-059>063-066>070-074>076-081>083-030200-
SOUTHEAST LOWER MICHIGAN

CITY           SKY/WX    TMP DP  RH WIND       PRES   REMARKS
ADRIAN         MOCLDY    77  68  73 NW5       30.00R
ALMA           MOCLDY    76  72  87 SW5       29.98S
ANN ARBOR      CLEAR     74  69  85 CALM      29.99R
BAD AXE        CLOUDY    74  66  74 W7        30.00R
DETROIT CITY   MOCLDY    80  65  59 CALM      29.98R
DETROIT        PTCLDY    81  63  54 N5        29.98R
FLINT          MOCLDY    77  66  68 SW3       29.98R
GROSSE ILE     PTCLDY    79  66  65 E7        29.97R
HILLSDALE      CLOUDY    75  73  93 CALM      30.02R
HOWELL         MOCLDY    79  69  73 W5        30.00R

CITY           SKY/WX    TMP DP  RH WIND       PRES   REMARKS
JACKSON        MOCLDY    75  70  84 SW3       30.01R
LANSING        MOCLDY    80  70  71 W6        29.99R
MASON          MOCLDY    74  68  80 CALM      30.00R
MONROE         CLEAR     76  71  85 CALM      29.97R
MT. CLEMENS    CLOUDY    76  68  77 W3        29.96R
PONTIAC        PTCLDY    74  70  87 CALM      29.99R
PORT HOPE        N/A     74  72  93 W3        29.96R
PORT HURON     CLOUDY    73  70  88 CALM      29.97R
TRI CITIES     MOCLDY    76  65  68 N14       30.01R
YPSILANTI      PTCLDY    81  70  69 NW3       29.99R
$$
MIZ043>046-050>051-056>058-064>065-071>073-077>080-030200-
SOUTHWEST LOWER MICHIGAN

CITY           SKY/WX    TMP DP  RH WIND       PRES   REMARKS
BATTLE CREEK   CLEAR     79  70  74 CALM      30.00R
BENTON HARBOR  MOCLDY    80  68  66 S3        29.97R
BIG RAPIDS     CLEAR     75  71  85 CALM      29.98R
COLDWATER      PTCLDY    74  71  89 SE3       30.00R
HOLLAND        PTCLDY    75  70  84 CALM      29.98R
GRAND RAPIDS   MOCLDY    79  69  71 W6        29.98R
KALAMAZOO      PTCLDY    77  68  73 CALM      29.99S
MARSHALL       PTCLDY    74  70  87 CALM      29.99R
MOUNT PLEASANT PTCLDY    81  71  72 W3        29.98R
MUSKEGON       MOCLDY    76  68  76 SE5       29.96F
STURGIS        PTCLDY    75  72  88 CALM      30.00R
$$
MIZ016>042-030200-
NORTHERN LOWER MICHIGAN

CITY           SKY/WX    TMP DP  RH WIND       PRES   REMARKS
ALPENA         CLOUDY    68  66  93 CALM      29.96R
BEAVER ISLAND  RAIN      70  69  96 NE10      29.95F
BELLAIRE       MOCLDY    73  68  86 NW3       29.98R
CADILLAC       MOCLDY    73  67  82 E3        30.00S
CHARLEVOIX     LGT RAIN  72  70  96 CALM      30.00S
GAYLORD        MOCLDY    67  67 100 CALM      29.99S
HOUGHTON LAKE  MOCLDY    66  65  96 CALM      30.01R
MANISTEE       MOCLDY    75  70  83 N3        29.95S
OSCODA         LGT RAIN  72  71  97 SW6       29.95S
PELLSTON       CLOUDY    71  67  87 NW5       29.98R
TRAVERSE CITY  CLOUDY    75  69  81 N3        29.96R
LUDINGTON      CLOUDY    76  70  82 SE3       29.95S
$$
MIZ007>008-015-030200-
EASTERN UPPER MICHIGAN

CITY           SKY/WX    TMP DP  RH WIND       PRES   REMARKS
KINROSS        CLOUDY    68  63  83 W6        29.98S
MACKINAC ISLAN CLOUDY    69  66  92 NW3       29.98R
NEWBERRY       CLOUDY    69  65  90 CALM      29.99S
S. S. MARIE    CLOUDY    64  62  93 W6        29.97S
$$
MIZ004>006-011>014-085-030200-
CENTRAL UPPER MICHIGAN

CITY           SKY/WX    TMP DP  RH WIND       PRES   REMARKS
MANISTIQUE     LGT RAIN  71  69  94 CALM      29.95F
ESCANABA       CLOUDY    72  72 100 CALM      29.92R
MENOMINEE      MOCLDY    66  63  88 E7        29.92R
$$
MIZ001>003-009>011-084-030200-
WESTERN UPPER MICHIGAN

CITY           SKY/WX    TMP DP  RH WIND       PRES   REMARKS
IRON MOUNTAIN  CLOUDY    69  67  93 NE5       29.93S
HOUGHTON       MOCLDY    66  64  93 E8        29.97S
COPPER HARBOR    N/A     66  62  87 CALM      29.97R
IRONWOOD       MOCLDY    66  64  94 CALM      29.93S
$$

ABBREVIATIONS USED IN REMARKS
   TC - TEMPERATURE IN CELSIUS
  WCI - WIND CHILL INDEX
   HX - HEAT INDEX
  VSB - VISIBILITY




USA.gov is the U.S. government's official web portal to all federal, state and local government web resources and services.